GFSFLT2_700_temp_060.txt.gz
Temp
0 0 0 0 1 1 1 1 1 1 1 1 1 1 1 0 -0 -1 -2 -3 -4 -6 -5 -5 -5 -5 -5
0 0 0 0 1 1 1 1 1 1 1 1 1 1 1 0 -0 -1 -2 -3 -3 -4 -5 -5 -5 -5 -5
1 1 1 1 1 1 1 1 1 1 1 1 1 0 0 0 -0 -1 -1 -2 -3 -3 -4 -4 -4 -4 -4
1 1 1 1 1 1 1 1 0 0 0 0 0 0 -0 -0 -0 -1 -1 -1 -2 -2 -3 -3 -3 -4 -4
1 1 1 0 0 0 0 -0 -0 -0 -0 -0 -1 -0 -0 -1 -1 -1 -1 -1 -1 -1 -2 -3 -3 -3 -3
0 0 0 -0 -0 -0 -0 -1 -1 -1 -1 -1 -1 -1 -1 -1 -1 -1 -1 -2 -2 -2 -2 -2 -2 -3 -3
0 -0 -0 -1 -1 -1 -1 -1 -1 -1 -1 -1 -1 -1 -1 -2 -2 -2 -2 -2 -3 -3 -3 -3 -3 -3 -3
-0 -1 -1 -1 -1 -1 -1 -1 -1 -1 -2 -2 -2 -2 -2 -2 -2 -3 -3 -3 -4 -4 -4 -5 -5 -5 -5
-1 -1 -1 -1 -1 -2 -2 -2 -2 -2 -2 -2 -2 -3 -3 -3 -3 -3 -4 -4 -5 -5 -5 -5 -6 -6 -6
-2 -2 -2 -2 -2 -2 -2 -2 -2 -3 -3 -3 -3 -3 -4 -4 -4 -4 -5 -5 -6 -6 -6 -7 -7 -7 -8
-2 -3 -3 -3 -3 -3 -3 -3 -3 -3 -3 -4 -4 -4 -5 -5 -5 -5 -6 -6 -6 -6 -7 -8 -8 -8 -9
-3 -3 -3 -3 -3 -3 -4 -4 -4 -4 -4 -5 -5 -5 -5 -6 -6 -7 -7 -7 -7 -7 -8 -8 -9 -9 -10
-4 -4 -4 -4 -4 -4 -4 -5 -5 -5 -5 -6 -6 -6 -6 -6 -7 -7 -7 -8 -8 -9 -9 -10 -10 -10 -11
-4 -5 -5 -5 -5 -5 -6 -6 -6 -6 -6 -6 -7 -7 -7 -7 -7 -8 -9 -8 -10 -10 -10 -10 -10 -11 -11
-5 -5 -5 -6 -6 -6 -7 -7 -7 -7 -7 -7 -7 -7 -8 -8 -8 -9 -9 -10 -10 -10 -10 -10 -11 -12 -12
-6 -6 -6 -6 -7 -7 -7 -7 -7 -7 -8 -8 -8 -8 -8 -9 -9 -9 -10 -10 -11 -11 -11 -11 -11 -12 -12
-6 -6 -7 -7 -7 -7 -7 -7 -8 -8 -8 -9 -9 -9 -8 -8 -9 -10 -10 -11 -11 -11 -12 -12 -11 -11 -12

GFSFLT2_700_temp_066.txt.gz
Temp
0 -0 -0 -0 -0 -0 0 0 0 1 1 1 1 1 1 1 1 1 1 1 1 0 -1 -1 -3 -3 -4
0 -0 -0 -1 -0 -0 -0 0 1 1 0 0 1 1 1 0 0 0 0 0 0 0 0 -0 -2 -3 -4
0 0 -0 -0 -0 0 1 1 0 0 0 -0 0 0 -0 -0 -0 -0 -0 -0 -0 -0 -0 -1 -1 -2 -5
0 0 0 0 0 0 0 0 -0 -0 -0 -1 -0 -0 -0 -1 -1 -0 -0 -1 -1 -1 -1 -1 -1 -2 -2
0 0 0 0 0 0 -0 -0 -1 -1 -1 -1 -1 -1 -1 -1 -1 -1 -1 -1 -1 -1 -1 -1 -2 -2 -2
-0 -0 -0 -1 -1 -1 -1 -0 -1 -1 -1 -1 -1 -1 -1 -1 -1 -1 -1 -1 -1 -1 -1 -1 -1 -2 -2
-1 -1 -1 -1 -1 -1 -1 -1 -1 -1 -2 -1 -2 -1 -2 -1 -1 -2 -2 -2 -2 -2 -2 -2 -2 -2 -2
-1 -1 -1 -1 -1 -1 -1 -1 -2 -2 -2 -2 -2 -2 -2 -2 -2 -2 -2 -2 -2 -3 -3 -3 -3 -3 -3
-2 -2 -2 -2 -2 -2 -2 -2 -2 -2 -3 -3 -3 -3 -3 -3 -3 -3 -3 -3 -3 -3 -4 -4 -4 -4 -4
-2 -2 -2 -2 -2 -2 -2 -3 -3 -3 -3 -3 -3 -3 -4 -4 -4 -4 -4 -4 -4 -4 -4 -4 -4 -4 -4
-3 -3 -3 -3 -3 -3 -3 -3 -4 -4 -4 -4 -4 -4 -4 -4 -4 -5 -5 -4 -4 -5 -5 -5 -5 -5 -5
-3 -3 -3 -3 -3 -3 -4 -4 -4 -4 -5 -5 -5 -5 -5 -5 -5 -5 -5 -5 -5 -5 -5 -5 -6 -6 -6
-4 -4 -4 -4 -4 -4 -4 -4 -5 -5 -5 -6 -6 -6 -6 -6 -6 -6 -6 -6 -6 -6 -6 -6 -6 -7 -7
-5 -6 -4 -5 -5 -5 -5 -5 -5 -6 -6 -6 -7 -7 -7 -7 -7 -7 -7 -7 -7 -7 -7 -8 -8 -8 -8
-7 -5 -5 -5 -5 -5 -6 -6 -6 -6 -6 -7 -7 -7 -7 -7 -7 -7 -7 -8 -8 -8 -8 -8 -9 -9 -9
-7 -6 -6 -6 -6 -6 -6 -6 -7 -7 -7 -7 -7 -7 -7 -7 -8 -8 -8 -9 -9 -9 -8 -8 -9 -10 -10
-8 -8 -7 -7 -7 -8 -7 -7 -8 -8 -8 -8 -8 -8 -8 -8 -8 -9 -9 -9 -9 -9 -9 -9 -9 -10 -10

GFSFLT2_700_temp_072.txt.gz
Temp
0 -2 -2 -2 -2 -2 -1 -1 -1 -1 -1 -0 0 0 1 1 1 1 1 1 1 1 0 -0 -1 -2 -2
-1 -1 -2 -2 -1 -2 -2 -1 -1 -1 -1 -0 0 0 1 1 1 1 1 0 0 1 0 0 -1 -3 -3
-1 -1 -1 -1 -2 -1 -1 -2 -1 -1 -0 -0 -0 0 0 0 0 0 0 0 0 -0 -0 -0 -1 -1 -2
-2 -2 -2 -2 -1 -1 -1 -1 -1 -1 -1 -1 -0 -0 -1 -1 -0 -0 -0 -0 -0 -1 -1 -1 -1 -1 -1
-2 -2 -2 -2 -2 -1 -1 -1 -1 -1 -1 -1 -1 -1 -1 -1 -1 -1 -1 -1 -1 -1 -1 -1 -1 -1 -1
-3 -3 -2 -2 -1 -1 -1 -1 -1 -1 -1 -1 -1 -1 -1 -1 -1 -1 -1 -1 -1 -1 -1 -1 -1 -1 -1
-3 -2 -2 -2 -2 -2 -2 -1 -1 -1 -1 -1 -2 -2 -2 -2 -2 -2 -2 -2 -2 -2 -2 -2 -2 -2 -2
-3 -2 -2 -2 -2 -2 -2 -2 -2 -2 -2 -2 -2 -2 -2 -2 -2 -2 -2 -2 -2 -2 -2 -3 -3 -2 -3
-3 -3 -3 -2 -2 -2 -2 -2 -2 -2 -2 -2 -3 -3 -3 -3 -3 -3 -3 -3 -3 -3 -3 -3 -3 -3 -3
-3 -3 -3 -3 -3 -3 -3 -3 -3 -3 -3 -3 -3 -3 -3 -3 -3 -4 -4 -4 -4 -4 -4 -4 -4 -4 -4
-3 -3 -3 -3 -3 -3 -4 -4 -4 -4 -5 -4 -4 -4 -4 -4 -4 -4 -4 -4 -4 -4 -5 -5 -5 -5 -5
-3 -4 -4 -4 -4 -4 -4 -5 -5 -5 -4 -4 -4 -5 -5 -5 -5 -5 -5 -5 -5 -5 -5 -5 -6 -5 -6
-4 -4 -4 -4 -5 -4 -5 -6 -6 -5 -5 -5 -5 -5 -5 -5 -5 -6 -6 -6 -6 -6 -6 -6 -6 -6 -6
-4 -4 -4 -4 -4 -5 -6 -7 -6 -6 -6 -5 -5 -6 -6 -6 -6 -7 -7 -7 -7 -7 -7 -7 -7 -7 -7
-5 -5 -5 -6 -6 -6 -7 -7 -6 -6 -6 -6 -6 -6 -6 -6 -6 -7 -7 -8 -8 -8 -8 -7 -7 -7 -7
-6 -6 -6 -6 -7 -7 -7 -7 -7 -7 -7 -7 -7 -7 -7 -7 -7 -8 -8 -8 -8 -8 -8 -8 -8 -8 -8
-7 -7 -7 -7 -7 -7 -7 -7 -7 -7 -7 -7 -7 -7 -7 -8 -8 -9 -9 -8 -8 -9 -8 -8 -8 -9 -9

GFSFLT2_700_temp_075.txt.gz
Temp
1 1 0 -1 -2 -3 -3 -2 -2 -2 -2 -1 -1 -0 -0 -0 0 0 1 1 1 1 1 0 0 -1 -1
1 0 -1 -1 -2 -1 -2 -2 -2 -1 -1 -1 -1 -1 -1 -0 -0 -0 0 0 0 0 0 0 0 -1 -1
0 -0 -1 -2 -2 -2 -2 -2 -2 -2 -2 -2 -1 -1 -1 -0 -0 -0 -0 -0 -0 -0 -0 -0 -0 -1 -1
-0 -1 -2 -2 -2 -2 -2 -2 -2 -2 -2 -2 -1 -1 -1 -1 -1 -1 -0 -0 -1 -1 -1 -1 -1 -1 -1
-1 -2 -2 -2 -3 -3 -3 -2 -2 -2 -2 -1 -1 -1 -1 -1 -1 -1 -1 -1 -1 -1 -1 -1 -1 -1 -1
-2 -2 -3 -3 -3 -3 -2 -2 -2 -2 -2 -1 -1 -1 -1 -1 -1 -1 -1 -1 -1 -1 -1 -1 -1 -1 -1
-3 -3 -3 -3 -3 -3 -2 -2 -2 -2 -2 -2 -2 -2 -2 -2 -2 -2 -2 -2 -2 -2 -2 -2 -2 -2 -2
-3 -3 -3 -3 -3 -3 -2 -2 -2 -2 -2 -2 -2 -2 -2 -2 -2 -2 -2 -2 -2 -2 -2 -2 -2 -2 -2
-4 -4 -3 -3 -3 -3 -3 -3 -3 -3 -3 -3 -3 -3 -3 -3 -3 -3 -3 -3 -3 -3 -3 -3 -3 -3 -3
-3 -3 -3 -3 -3 -3 -3 -4 -3 -3 -3 -3 -4 -4 -3 -3 -3 -3 -3 -4 -3 -3 -3 -3 -4 -4 -4
-4 -4 -4 -4 -4 -4 -4 -4 -4 -4 -4 -4 -4 -5 -5 -4 -4 -4 -4 -4 -4 -4 -4 -4 -4 -4 -4
-3 -3 -4 -4 -4 -4 -4 -4 -4 -5 -5 -5 -6 -6 -5 -5 -5 -5 -5 -5 -5 -5 -5 -5 -5 -5 -5
-4 -4 -4 -4 -4 -4 -5 -5 -6 -6 -6 -6 -6 -6 -5 -5 -5 -5 -5 -5 -6 -6 -6 -6 -6 -6 -6
-4 -4 -4 -5 -5 -5 -5 -6 -5 -6 -7 -6 -6 -6 -6 -6 -6 -6 -6 -6 -6 -6 -6 -7 -7 -7 -7
-5 -5 -5 -5 -5 -6 -6 -6 -6 -7 -7 -7 -7 -7 -6 -6 -6 -6 -6 -7 -6 -6 -7 -7 -7 -7 -7
-5 -5 -5 -6 -6 -6 -7 -7 -7 -7 -7 -8 -8 -8 -7 -7 -7 -7 -7 -7 -7 -7 -7 -8 -8 -8 -8
-6 -6 -6 -7 -7 -8 -7 -7 -7 -7 -8 -8 -8 -8 -7 -8 -8 -8 -8 -7 -8 -8 -9 -9 -9 -9 -9

GFSFLT2_700_temp_081.txt.gz
Temp
1 1 1 1 1 1 1 1 -1 -2 -4 -4 -4 -3 -2 -2 -2 -1 -1 -1 -0 -0 -0 -0 -0 0 -0
1 1 1 1 1 1 0 -1 -2 -2 -3 -3 -3 -3 -2 -2 -2 -1 -1 -1 -1 -0 -0 -0 -0 0 -0
1 1 1 1 1 0 0 -1 -2 -2 -3 -2 -2 -3 -3 -2 -2 -2 -2 -1 -1 -0 -0 -0 -0 -0 -1
1 1 1 1 1 1 -0 -1 -1 -2 -2 -2 -3 -3 -3 -3 -2 -2 -2 -2 -1 -1 -1 -1 -1 -0 -1
1 1 1 0 0 -0 -1 -1 -2 -3 -3 -3 -3 -3 -3 -3 -2 -2 -2 -2 -1 -1 -1 -1 -1 -1 -1
1 1 0 0 -1 -1 -1 -2 -3 -3 -3 -3 -3 -3 -3 -2 -2 -2 -2 -2 -1 -1 -1 -1 -1 -2 -2
0 0 1 0 -1 -2 -2 -3 -3 -3 -3 -3 -3 -3 -3 -2 -2 -2 -2 -2 -2 -2 -2 -2 -2 -2 -2
0 -0 -0 -0 -2 -3 -3 -3 -3 -3 -3 -3 -3 -3 -3 -3 -3 -2 -2 -2 -2 -2 -2 -2 -2 -2 -2
-0 -1 -1 -2 -2 -3 -3 -3 -3 -3 -3 -3 -3 -3 -3 -3 -2 -3 -3 -3 -2 -3 -3 -3 -3 -2 -2
-1 -1 -2 -2 -3 -3 -3 -3 -3 -3 -3 -3 -3 -3 -3 -3 -3 -3 -3 -3 -3 -3 -3 -3 -3 -3 -3
-2 -2 -2 -3 -3 -3 -3 -3 -3 -3 -3 -3 -4 -4 -4 -4 -4 -4 -4 -4 -4 -4 -4 -4 -3 -3 -3
-2 -2 -2 -3 -3 -3 -3 -3 -4 -4 -4 -4 -4 -5 -4 -4 -5 -5 -5 -5 -5 -6 -5 -4 -4 -4 -4
-3 -3 -3 -3 -3 -3 -4 -4 -4 -4 -5 -5 -5 -5 -5 -5 -6 -6 -6 -5 -5 -5 -5 -5 -5 -5 -5
-3 -3 -4 -3 -3 -4 -4 -4 -4 -4 -5 -5 -5 -5 -6 -6 -6 -6 -6 -6 -5 -5 -5 -5 -5 -5 -5
-4 -4 -4 -4 -4 -4 -4 -5 -5 -5 -5 -6 -6 -6 -6 -6 -7 -7 -6 -6 -6 -6 -5 -5 -5 -5 -5
-5 -5 -4 -4 -5 -5 -5 -5 -5 -6 -6 -6 -6 -6 -6 -7 -7 -7 -7 -6 -6 -6 -6 -6 -6 -6 -6
-5 -5 -5 -5 -5 -5 -5 -6 -6 -6 -7 -7 -7 -7 -7 -7 -7 -7 -7 -7 -7 -6 -6 -6 -6 -6 -6

GFSFLT2_700_temp_084.txt.gz
Temp
0 1 1 1 1 1 1 1 1 1 1 1 -1 -2 -2 -2 -3 -2 -2 -1 -1 -1 1 0 -0 -0 -0
1 1 1 1 0 1 1 1 1 1 1 -0 -1 -1 -2 -3 -2 -2 -2 -1 -1 -1 -0 -0 -0 -0 -0
0 1 1 1 1 1 1 1 1 1 0 0 -0 -1 -2 -2 -2 -2 -2 -2 -2 -1 -1 -1 -0 -0 -0
0 0 1 0 0 0 1 1 1 0 -1 -1 -1 -2 -2 -2 -2 -2 -2 -2 -2 -1 -1 -1 -1 -0 -1
-0 0 0 0 0 1 1 1 0 -0 -1 -2 -2 -3 -3 -2 -3 -3 -3 -3 -2 -1 -1 -1 -1 -1 -3
-0 0 0 0 0 1 0 -0 -1 -1 -2 -2 -3 -3 -3 -3 -3 -3 -3 -2 -2 -2 -1 -2 -1 -1 -1
-0 -0 -0 0 0 0 -0 -1 -1 -3 -3 -3 -3 -3 -3 -3 -3 -2 -2 -2 -2 -2 -2 -2 -2 -2 -2
-0 -1 -1 -0 -0 -0 -1 -1 -2 -3 -3 -3 -3 -3 -3 -3 -2 -2 -2 -2 -2 -2 -2 -2 -2 -2 -2
-1 -1 -1 -1 -1 -1 -1 -2 -2 -3 -3 -3 -3 -3 -3 -3 -3 -2 -3 -2 -2 -2 -2 -2 -2 -2 -2
-1 -1 -1 -2 -1 -2 -2 -3 -3 -3 -3 -3 -3 -3 -3 -3 -3 -3 -3 -3 -2 -3 -4 -3 -3 -3 -3
-2 -2 -1 -2 -2 -3 -3 -3 -3 -3 -3 -3 -3 -4 -4 -4 -4 -4 -4 -4 -4 -4 -5 -4 -4 -4 -4
-2 -2 -2 -2 -3 -3 -3 -3 -3 -3 -3 -3 -4 -4 -4 -4 -4 -4 -4 -5 -5 -4 -5 -5 -4 -5 -5
-3 -3 -2 -3 -3 -3 -4 -3 -3 -3 -4 -4 -4 -5 -5 -5 -5 -5 -5 -6 -6 -5 -6 -6 -5 -5 -5
-3 -3 -3 -3 -3 -4 -4 -4 -4 -4 -4 -5 -5 -5 -5 -5 -5 -5 -6 -6 -7 -6 -6 -5 -5 -5 -5
-4 -4 -4 -4 -4 -4 -4 -4 -4 -5 -5 -5 -5 -5 -5 -6 -6 -6 -6 -7 -7 -7 -6 -6 -6 -6 -5
-5 -4 -4 -4 -5 -5 -4 -4 -5 -5 -5 -5 -5 -6 -6 -6 -6 -6 -7 -7 -7 -6 -6 -6 -6 -6 -6
-5 -5 -5 -5 -5 -5 -5 -5 -5 -5 -6 -6 -6 -6 -7 -7 -7 -7 -8 -7 -7 -7 -7 -7 -7 -6 -6

GFSFLT2_700_temp_087.txt.gz
Temp
-0 -0 0 0 0 0 1 0 1 1 1 0 1 0 1 -0 -1 -0 -1 -1 -0 -0 -0 -0 -0 -1 -0
-1 -1 -0 -0 -0 -0 0 0 0 0 0 0 0 -0 0 -0 -1 -1 -2 -2 -1 -1 -1 -0 -1 -1 -1
-1 -1 -0 0 0 0 0 0 1 1 0 0 0 0 -0 -1 -1 -1 -2 -2 -2 -1 -1 -1 -1 -1 -0
-0 -0 0 0 0 0 0 1 0 0 -0 -0 -0 -0 -1 -1 -2 -2 -3 -2 -2 -2 -2 -2 -2 -1 -1
-0 -0 -0 0 0 0 0 1 0 1 1 -0 -1 -1 -2 -2 -3 -3 -3 -3 -2 -2 -2 -2 -2 -2 -2
-1 -1 -1 -0 0 0 0 1 1 1 0 -0 -1 -2 -2 -3 -3 -3 -3 -3 -2 -2 -2 -2 -2 -2 -3
-1 -1 -1 -1 -1 -0 0 0 0 -0 -1 -1 -2 -3 -3 -3 -3 -3 -3 -3 -2 -2 -2 -2 -2 -3 -3
-2 -2 -1 -1 -1 -1 -1 -0 -1 -1 -2 -2 -3 -3 -3 -3 -3 -3 -3 -3 -2 -2 -2 -2 -2 -2 -2
-2 -2 -2 -1 -1 -1 -1 -1 -1 -1 -2 -2 -3 -3 -3 -3 -3 -3 -3 -3 -3 -2 -2 -2 -2 -2 -3
-2 -2 -2 -2 -2 -1 -1 -2 -1 -2 -2 -3 -3 -3 -3 -3 -3 -3 -3 -3 -3 -3 -3 -2 -2 -2 -2
-3 -2 -2 -2 -2 -2 -2 -2 -2 -2 -2 -3 -3 -3 -4 -3 -3 -3 -3 -4 -3 -3 -3 -3 -4 -4 -3
-3 -2 -2 -2 -2 -2 -2 -2 -3 -3 -3 -3 -3 -3 -4 -4 -4 -4 -4 -4 -4 -4 -4 -4 -4 -4 -4
-3 -3 -3 -3 -2 -2 -2 -3 -3 -3 -3 -3 -3 -4 -4 -4 -5 -5 -5 -4 -5 -5 -5 -5 -6 -5 -5
-4 -4 -3 -3 -3 -3 -3 -3 -3 -3 -3 -4 -4 -4 -5 -5 -5 -5 -5 -5 -6 -6 -6 -6 -6 -6 -6
-4 -4 -4 -4 -3 -3 -3 -3 -4 -4 -4 -4 -4 -5 -5 -5 -6 -6 -6 -6 -6 -7 -7 -7 -7 -6 -6
-5 -5 -4 -5 -4 -4 -4 -4 -4 -4 -4 -4 -5 -5 -5 -6 -6 -6 -6 -7 -7 -7 -7 -7 -7 -6 -6
-5 -5 -5 -5 -4 -4 -4 -4 -4 -4 -5 -5 -5 -5 -6 -6 -6 -6 -7 -7 -7 -8 -8 -7 -7 -7 -6

GFSFLT2_700_temp_090.txt.gz
Temp
0 -0 -0 0 0 0 1 1 1 1 1 1 1 1 1 1 1 1 0 0 -1 -0 -0 -1 -1 -0 -0
-0 -0 -0 -0 0 0 0 0 0 0 1 1 0 0 0 0 0 -0 -0 -1 -1 -1 -1 -1 -1 -1 -1
-1 -1 -0 -0 -0 -0 -0 -0 0 0 1 1 1 1 1 0 0 -0 -0 -1 -2 -2 -2 -2 -1 -1 -1
-1 -1 -1 -1 -1 -1 -1 -0 -0 0 1 1 1 1 1 0 -0 -1 -2 -2 -2 -2 -2 -2 -2 -1 -1
-1 -1 -1 -1 -1 -1 -0 -0 0 0 0 1 1 1 1 0 -1 -1 -2 -2 -2 -2 -2 -2 -2 -2 -2
-1 -1 -1 -1 -1 -1 -1 -0 -0 0 0 0 1 1 1 -0 -2 -2 -3 -2 -2 -2 -3 -3 -2 -3 -5
-1 -2 -2 -2 -1 -1 -1 -0 0 0 -0 0 0 0 -0 -1 -2 -2 -2 -3 -3 -3 -3 -3 -2 -3 -4
-2 -2 -2 -2 -2 -1 -1 -1 -0 -0 -0 -0 -0 -1 -2 -2 -2 -2 -2 -3 -3 -3 -3 -2 -3 -3 -3
-3 -3 -3 -2 -2 -2 -1 -1 -0 -0 -0 -1 -2 -2 -2 -2 -2 -2 -2 -2 -2 -3 -3 -3 -3 -3 -3
-3 -3 -3 -3 -2 -2 -2 -1 -1 -0 -1 -1 -2 -2 -2 -2 -2 -2 -3 -2 -3 -3 -3 -3 -3 -3 -2
-3 -3 -3 -3 -3 -2 -2 -2 -1 -1 -2 -2 -2 -3 -2 -3 -3 -3 -3 -3 -3 -3 -3 -3 -3 -3 -3
-4 -4 -4 -3 -3 -3 -2 -2 -2 -2 -2 -2 -2 -3 -3 -3 -3 -3 -3 -3 -3 -4 -3 -4 -4 -4 -4
-5 -4 -5 -4 -3 -3 -3 -3 -2 -3 -3 -3 -3 -3 -3 -3 -3 -3 -4 -4 -4 -4 -4 -4 -5 -5 -5
-5 -4 -5 -4 -4 -3 -3 -3 -3 -3 -3 -3 -3 -3 -4 -4 -4 -4 -4 -4 -5 -5 -5 -5 -6 -6 -6
-5 -5 -5 -4 -4 -4 -4 -4 -4 -4 -4 -4 -4 -4 -4 -4 -5 -5 -4 -5 -5 -5 -5 -6 -6 -6 -6
-5 -5 -5 -5 -5 -5 -5 -5 -5 -4 -4 -4 -4 -4 -4 -5 -5 -5 -5 -5 -6 -6 -6 -6 -7 -7 -7
-6 -6 -5 -5 -5 -5 -5 -5 -7 -5 -5 -5 -5 -4 -5 -5 -6 -5 -6 -6 -6 -6 -7 -7 -7 -7 -7

GFSFLT2_700_temp_093.txt.gz
Temp
0 0 0 0 0 -0 -0 -0 0 0 0 1 1 1 1 1 1 1 1 1 1 1 1 1 0 0 0
0 -0 0 0 -1 -1 -0 0 0 0 1 1 1 1 1 1 1 1 1 1 1 0 0 0 -0 -0 -0
0 -0 0 -0 -2 -1 -0 0 0 0 0 1 1 1 1 1 1 1 1 1 0 0 -0 -0 -1 -1 -1
0 -0 -0 -1 -1 -1 -1 -0 0 0 0 0 1 1 1 1 1 1 1 0 -0 -0 -1 -1 -2 -1 -1
-0 -1 -1 -1 -1 -1 -1 -1 -0 -0 -0 0 1 1 1 1 1 1 1 0 -1 -1 -1 -2 -2 -2 -1
-1 -1 -1 -1 -2 -1 -1 -1 -1 -1 -0 0 0 1 1 1 1 1 0 -1 -1 -1 -2 -2 -2 -3 -2
-1 -1 -2 -2 -2 -2 -1 -1 -1 -1 -0 -0 -0 0 0 1 1 0 -0 -1 -1 -2 -2 -2 -3 -3 -2
-2 -2 -2 -2 -2 -2 -2 -1 -1 -1 -1 -0 -0 -0 0 0 0 -0 -1 -2 -2 -2 -2 -3 -3 -3 -3
-2 -3 -2 -2 -2 -3 -2 -2 -2 -1 -1 -1 -0 -1 -1 -0 -1 -1 -2 -2 -2 -2 -2 -3 -3 -3 -3
-3 -3 -3 -3 -3 -2 -2 -2 -2 -2 -2 -1 -1 -1 -1 -1 -1 -2 -2 -2 -2 -2 -3 -2 -3 -3 -3
-4 -5 -4 -4 -3 -3 -2 -3 -3 -2 -2 -2 -2 -2 -1 -2 -2 -2 -2 -3 -3 -3 -3 -3 -3 -3 -3
-5 -5 -5 -4 -4 -4 -3 -3 -3 -3 -2 -2 -2 -2 -3 -3 -3 -3 -3 -3 -3 -3 -3 -3 -3 -3 -3
-6 -6 -5 -6 -5 -5 -4 -4 -3 -3 -2 -2 -3 -3 -3 -3 -3 -3 -3 -4 -4 -3 -4 -4 -4 -3 -3
-6 -6 -6 -5 -6 -5 -5 -4 -4 -3 -3 -3 -3 -3 -3 -4 -3 -4 -4 -4 -4 -4 -4 -4 -4 -4 -4
-7 -6 -6 -6 -5 -5 -5 -5 -4 -4 -3 -3 -3 -4 -4 -4 -4 -4 -4 -5 -5 -4 -5 -5 -5 -5 -5
-7 -7 -6 -6 -6 -5 -5 -5 -4 -4 -4 -4 -4 -4 -4 -4 -5 -5 -5 -5 -5 -5 -5 -5 -5 -6 -6
-7 -7 -7 -7 -6 -6 -5 -5 -5 -5 -5 -6 -4 -4 -5 -5 -5 -5 -6 -6 -6 -6 -6 -6 -6 -6 -6

GFSFLT2_700_temp_096.txt.gz
Temp
0 0 -0 -0 0 -0 -0 -0 -0 -1 -1 -1 0 1 1 1 1 1 1 1 1 1 1 1 1 1 1
-0 -0 0 0 -0 -0 -0 -0 -1 -1 -0 0 0 1 1 1 1 1 1 1 1 1 1 1 1 1 1
-0 -0 -0 -0 -1 -0 -0 -1 -1 -1 0 1 1 1 1 1 1 1 1 1 1 1 1 1 0 0 0
-0 -1 -1 -1 -1 -1 -1 -1 -2 -1 0 0 0 1 1 1 1 1 1 1 1 1 1 0 0 -0 0
0 -0 -1 -1 -1 -1 -2 -2 -2 -1 -0 -0 0 0 0 1 1 1 1 1 1 1 1 0 -0 -1 -1
-0 -0 -0 -1 -2 -2 -2 -1 -2 -1 -1 -0 0 0 0 0 1 1 1 1 1 1 0 -0 -1 -1 -1
-0 -1 -1 -1 -2 -2 -2 -2 -2 -2 -1 -1 -0 -0 -0 0 0 0 0 0 0 -0 -0 -1 -1 -2 -1
-2 -1 -1 -2 -2 -2 -2 -2 -1 -1 -1 -1 -1 -1 -0 0 0 0 0 0 -0 -1 -1 -1 -2 -2 -2
-2 -2 -2 -2 -2 -2 -2 -2 -2 -2 -2 -2 -1 -1 -1 -0 -0 -0 -0 -0 -1 -1 -2 -2 -2 -3 -3
-4 -3 -3 -3 -3 -3 -3 -3 -3 -3 -2 -2 -2 -1 -1 -1 -1 -1 -1 -1 -1 -2 -2 -2 -3 -3 -3
-5 -4 -4 -4 -4 -4 -4 -3 -3 -3 -2 -2 -2 -2 -1 -1 -1 -1 -2 -2 -2 -2 -3 -3 -3 -3 -3
-6 -5 -5 -5 -5 -4 -5 -4 -4 -4 -3 -3 -2 -2 -2 -2 -2 -2 -2 -2 -3 -3 -3 -3 -3 -3 -3
-7 -6 -5 -5 -6 -5 -6 -5 -5 -4 -4 -4 -3 -3 -2 -2 -2 -2 -2 -2 -3 -3 -3 -3 -3 -3 -3
-7 -7 -7 -6 -6 -5 -5 -5 -6 -5 -4 -4 -3 -3 -3 -3 -3 -3 -3 -3 -3 -3 -4 -4 -4 -4 -4
-8 -8 -7 -6 -6 -7 -6 -6 -5 -5 -5 -5 -4 -4 -3 -3 -4 -4 -3 -3 -4 -4 -4 -5 -4 -4 -4
-9 -9 -8 -7 -7 -7 -7 -6 -6 -5 -5 -5 -4 -4 -4 -4 -4 -4 -4 -4 -4 -4 -5 -5 -4 -4 -5
-10 -9 -8 -8 -7 -7 -7 -7 -6 -6 -6 -5 -5 -5 -4 -4 -4 -4 -5 -5 -5 -5 -5 -5 -5 -5 -5

GFSFLT2_700_temp_099.txt.gz
Temp
1 1 1 1 0 0 0 1 -0 -0 -1 -0 -1 -1 -1 0 0 1 1 1 1 2 2 2 2 1 1
0 0 -0 0 -1 -0 -0 -0 -1 -1 -1 -1 -0 -1 -0 0 1 1 1 1 1 2 2 1 1 1 2
0 -1 0 -0 -0 -0 -1 -0 -0 -0 -1 -1 -1 -0 0 0 0 1 1 1 2 2 2 1 1 2 1
-0 -0 0 -0 -0 -0 -1 -1 -1 -1 -1 -1 -1 -0 -0 0 0 1 1 1 1 1 1 1 1 1 1
-1 -1 -1 0 -0 -0 -0 -1 -1 -1 -1 -1 -1 -0 0 0 0 0 1 1 1 1 1 1 2 1 1
-1 -2 -1 -1 -1 -1 -1 -1 -1 -1 -1 -2 -1 -1 -0 0 0 0 1 1 1 1 1 1 1 1 1
0 0 -1 -1 -1 -2 -1 -2 -1 -2 -1 -2 -2 -1 -0 -0 -0 -0 1 1 0 0 0 1 1 0 0
-3 -1 -0 -2 -1 -2 -2 -2 -2 -2 -1 -2 -2 -1 -1 -0 -0 -0 -0 0 0 0 -0 0 0 -0 -0
-3 -4 -3 -2 -2 -3 -2 -2 -2 -2 -2 -2 -2 -2 -1 -1 -1 -1 -0 -0 -1 -0 -0 -0 -1 -1 -1
-5 -4 -4 -3 -3 -3 -3 -2 -3 -3 -3 -2 -3 -3 -2 -1 -1 -1 -1 -1 -1 -1 -1 -1 -1 -2 -2
-7 -6 -5 -4 -4 -4 -3 -3 -3 -3 -3 -3 -3 -3 -2 -3 -2 -2 -1 -1 -1 -1 -2 -2 -2 -2 -3
-7 -7 -6 -5 -5 -4 -4 -3 -4 -4 -4 -3 -3 -3 -2 -3 -3 -2 -2 -2 -1 -2 -2 -2 -2 -3 -3
-8 -7 -7 -6 -5 -6 -5 -4 -5 -4 -4 -4 -4 -4 -3 -3 -3 -2 -2 -2 -2 -2 -2 -3 -3 -3 -3
-10 -8 -8 -7 -7 -6 -6 -6 -5 -5 -5 -5 -6 -4 -4 -4 -3 -3 -2 -2 -3 -3 -3 -3 -3 -3 -3
-12 -10 -9 -8 -7 -7 -7 -6 -5 -6 -6 -6 -6 -5 -5 -4 -3 -3 -3 -3 -3 -3 -3 -3 -3 -3 -4
-12 -11 -10 -9 -8 -7 -7 -7 -7 -6 -6 -6 -6 -5 -5 -5 -4 -4 -3 -3 -4 -4 -4 -4 -4 -4 -4
-13 -12 -10 -10 -9 -8 -8 -7 -7 -7 -7 -7 -6 -5 -5 -5 -4 -4 -4 -4 -4 -4 -4 -4 -4 -5 -5